This is the latest recevied weather packets stored in our database for station/object KB0BDN-13. If no packets are shown the sender has not sent any weather packets the latest 10 day(s).
| Time | Temp. | Humidity | Pressure | Rain* | Wind** | Luminosity | Snow |
|---|---|---|---|---|---|---|---|
| 1787953454 | 20.56° C | 50% | 1011.7 hPa | 0 mm | - | - | - |
| 1787952696 | 20.56° C | 48% | 1011.7 hPa | 0 mm | - | - | - |
| 1787951794 | 20.56° C | 51% | 1011.8 hPa | 0 mm | - | - | - |
| 1787951650 | 20.56° C | 51% | 1012 hPa | 0 mm | - | - | - |
| 1787950898 | 21.11° C | 48% | 1012 hPa | 0 mm | - | - | - |
| 1787950750 | 21.11° C | 49% | 1012.1 hPa | 0 mm | - | - | - |
| 1787949998 | 21.67° C | 49% | 1012.1 hPa | 0 mm | - | - | - |
| 1787949850 | 21.67° C | 49% | 1012.3 hPa | 0 mm | - | - | - |
| 1787949098 | 21.67° C | 49% | 1012.3 hPa | 0 mm | - | - | - |
| 1787948951 | 21.67° C | 48% | 1012.4 hPa | 0 mm | - | - | - |
| 1787948197 | 21.67° C | 50% | 1012.4 hPa | 0 mm | - | - | - |
| 1787948051 | 22.22° C | 51% | 1012.6 hPa | 0 mm | - | - | - |
| 1787947298 | 22.22° C | 48% | 1012.6 hPa | 0 mm | - | - | - |
| 1787947149 | 22.22° C | 49% | 1012.6 hPa | 0 mm | - | - | - |
| 1787946397 | 21.67° C | 49% | 1012.6 hPa | 0 mm | - | - | - |
| 1787946251 | 21.67° C | 50% | 1012.8 hPa | 0 mm | - | - | - |
| 1787945497 | 21.11° C | 52% | 1012.8 hPa | 0 mm | - | - | - |
| 1787945350 | 21.11° C | 52% | 1013.1 hPa | 0 mm | - | - | - |
| 1787944595 | 20.56° C | 56% | 1013.1 hPa | 0 mm | - | - | - |
| 1787944451 | 20.56° C | 55% | 1013.2 hPa | 0 mm | - | - | - |
| 1787943694 | 20.56° C | 55% | 1013.2 hPa | 0 mm | - | - | - |
| 1787943551 | 21.11° C | 55% | 1013.4 hPa | 0 mm | - | - | - |
| 1787942794 | 21.11° C | 56% | 1013.4 hPa | 0 mm | - | - | - |
| 1787942651 | 21.11° C | 57% | 1013.6 hPa | 0 mm | - | - | - |
| 1787941895 | 20.56° C | 55% | 1013.6 hPa | 0 mm | - | - | - |
* Rain latest hour (hover to see other rain measurements)
** Current wind speed in m/s (hover to see current wind gust speed)